Tracking 20241 objects as of 27-Jan-2020
HD Live streaming from Space Station
objects crossing your sky now

CZ-3B R/B

Track CZ-3B R/B now!


NORAD ID: 43451
Int'l Code: 2018-041B
Perigee: 264.8 km
Apogee: 38,749.7 km
Inclination: 27.1 °
Period: 690.5 minutes
Semi major axis: 25878 km
RCS: Unknown
Launch date: May 3, 2018
Source: People's Republic of China (PRC)
Launch site: Xichang Space Center, China (XSC)

Note: This is a ROCKET BODY
aabbcc
Your satellite tracking list
Your tracking list is empty




NASA's NSSDC Master Catalog

Two Line Element Set (TLE):
1 43451U 18041B   20025.98705295  .00000501  00000-0  20750-3 0  9998
2 43451  27.1163 253.7708 7435765 160.8097 259.1574  2.08545214 12905
Source of the keplerian elements: AFSPC